Satellite: DELFIN3XT
Catalog number: 39428
Epoch time: 14155.73277791
Element set: 171
Inclination: 097.7619 deg
RA of node: 222.1340 deg
Eccentricity: 0.0127872
Arg of perigee: 292.2185 deg
Mean anomaly: 066.5480 deg
Mean motion: 14.63258006 rev/day
Decay rate: 8.59e-06 rev/day^2
Epoch rev: 2851
Checksum: 317
Satellite: GOMX-1
Catalog number: 39430
Epoch time: 14156.69940958
Element set: 535
Inclination: 097.7603 deg
RA of node: 221.1647 deg
Eccentricity: 0.0155356
Arg of perigee: 294.1027 deg
Mean anomaly: 064.3997 deg
Mean motion: 14.56808225 rev/day
Decay rate: 4.65e-06 rev/day^2
Epoch rev: 2854
Checksum: 328
Satellite: MO-76
Catalog number: 39436
Epoch time: 14156.75149651
Element set: 227
Inclination: 097.7780 deg
RA of node: 230.5438 deg
Eccentricity: 0.0024319
Arg of perigee: 286.4369 deg
Mean anomaly: 073.4143 deg
Mean motion: 14.89901766 rev/day
Decay rate: 5.896e-05 rev/day^2
Epoch rev: 2917
Checksum: 353
Satellite: LO-74
Catalog number: 39440
Epoch time: 14156.44811355
Element set: 167
Inclination: 097.7702 deg
RA of node: 225.9090 deg
Eccentricity: 0.0082555
Arg of perigee: 283.4325 deg
Mean anomaly: 075.7709 deg
Mean motion: 14.73026344 rev/day
Decay rate: 6.37e-06 rev/day^2
Epoch rev: 2885
Checksum: 322
Satellite: PUCPSAT-1
Catalog number: 39442
Epoch time: 14156.45136280
Element set: 165
Inclination: 097.7808 deg
RA of node: 229.8793 deg
Eccentricity: 0.0033662
Arg of perigee: 285.1337 deg
Mean anomaly: 074.6166 deg
Mean motion: 14.86037179 rev/day
Decay rate: 1.186e-05 rev/day^2
Epoch rev: 2788
Checksum: 335
Satellite: LITUANSAT
Catalog number: 39569
Epoch time: 14156.80375052
Element set: 297
Inclination: 051.6411 deg
RA of node: 146.7780 deg
Eccentricity: 0.0008546
Arg of perigee: 030.7799 deg
Mean anomaly: 031.0434 deg
Mean motion: 15.76349821 rev/day
Decay rate: 1.30812e-03 rev/day^2
Epoch rev: 1523
Checksum: 299
Satellite: SHINAISAT
Catalog number: 39572
Epoch time: 14156.73276057
Element set: 135
Inclination: 065.0082 deg
RA of node: 082.6893 deg
Eccentricity: 0.0016203
Arg of perigee: 288.9903 deg
Mean anomaly: 070.9496 deg
Mean motion: 15.68449306 rev/day
Decay rate: 3.2712e-04 rev/day^2
Epoch rev: 1531
Checksum: 310
Satellite: OPUSAT
Catalog number: 39575
Epoch time: 14156.80681369
Element set: 165
Inclination: 065.0049 deg
RA of node: 078.3500 deg
Eccentricity: 0.0013501
Arg of perigee: 295.6579 deg
Mean anomaly: 064.3198 deg
Mean motion: 15.84765262 rev/day
Decay rate: 1.35773e-03 rev/day^2
Epoch rev: 1540
Checksum: 318
Satellite: TEIKYOSAT
Catalog number: 39576
Epoch time: 14156.91758854
Element set: 140
Inclination: 065.0067 deg
RA of node: 081.0112 deg
Eccentricity: 0.0014621
Arg of perigee: 302.6769 deg
Mean anomaly: 057.2974 deg
Mean motion: 15.71735730 rev/day
Decay rate: 4.3746e-04 rev/day^2
Epoch rev: 1536
Checksum: 302
Satellite: IFT-1
Catalog number: 39577
Epoch time: 14156.77769204
Element set: 148
Inclination: 065.0070 deg
RA of node: 079.7932 deg
Eccentricity: 0.0014067
Arg of perigee: 303.6511 deg
Mean anomaly: 056.3322 deg
Mean motion: 15.78334003 rev/day
Decay rate: 8.1820e-04 rev/day^2
Epoch rev: 1537
Checksum: 294
Satellite: CO-77
Catalog number: 39578
Epoch time: 14137.79435183
Element set: 185
Inclination: 064.9698 deg
RA of node: 141.4483 deg
Eccentricity: 0.0010610
Arg of perigee: 288.0688 deg
Mean anomaly: 072.6747 deg
Mean motion: 16.37966192 rev/day
Decay rate: 4.930316e-02 rev/day^2
Epoch rev: 1246
Checksum: 359
Satellite: STARS-II
Catalog number: 39579
Epoch time: 14116.06110564
Element set: 132
Inclination: 064.9886 deg
RA of node: 219.0071 deg
Eccentricity: 0.0013010
Arg of perigee: 293.8065 deg
Mean anomaly: 069.6132 deg
Mean motion: 16.44611049 rev/day
Decay rate: 2.0186783e-01 rev/day^2
Epoch rev: 902
Checksum: 288
Satellite: SPROUT
Catalog number: 39770
Epoch time: 14156.18807537
Element set: 25
Inclination: 097.8701 deg
RA of node: 253.5278 deg
Eccentricity: 0.0009905
Arg of perigee: 359.2997 deg
Mean anomaly: 000.8212 deg
Mean motion: 14.82577315 rev/day
Decay rate: 7.05e-06 rev/day^2
Epoch rev: 176
Checksum: 311
/EX
1
0